FENGYUN 1C DEB, 29873

Orbit data source: Space-Track

FENGYUN 1C DEB, 29873 is space debris in SSO originally from a launch on Mon, 10 May 1999 UTC launched from the Taiyaun Space Center, China (TSC). Fengyun 1C debris stems from the Chinese weather satellite Fengyun-1C, which was intentionally destroyed by a Chinese anti-satellite missile in 2007. This event dramatically increased the amount of space debris, with thousands of trackable fragments posing hazards to satellites and human spaceflight. The Fengyun 1C debris cloud has become a focal point in discussions about space sustainability and the need for international regulations to prevent the creation of new debris.

Loading next visibility...
Identifier
29873, 1999-025FT
Orbit
SSO
Country
Flag of CNCN / PRC
Related business
Manufacturer
Unknown
Mission
Spacecraft
Bus & Motor
Unknown
Mass
Unknown
Launch date (UTC)
1999-05-10 (27 years ago)
Launch vehicle
Unknown
Launch site
Taiyaun Space Center, China (TSC)
Object type
Payload
Rocket body
Debris
Shape & HBR
Unknown shape, 0.1 m
Radar Cross Section
Medium (>0.1 m² and <1 m²)

Expand to show TLE details & history
Last TLE update: 14 hours ago

TLE from 14 hours ago
0 FENGYUN 1C DEB
1 29873U 99025FT  26255.16313137  .00000558  00000-0  40822-3 0  9996
2 29873  99.4091 127.7511 0092164 174.7767 302.9528 13.98399443  1360
Epoch: 2026-09-12T03:54Z
TLE epoch observation values (Epoch: 2026-09-12T03:54:54.550Z)
Latitude
61.77102°
Longitude
-84.27071°
Altitude
873.803 km
Speed
7.44 km/s
True Right ascension
21h 42m 31s
True Declination
61° 37' 47"
Sunlit
Object was in daylight at epoch
Visualization orbit readout
Latitude
Unknown
Longitude
Unknown
Altitude
Unknown
Speed
Unknown
Apparent Right ascension
Unknown
Apparent Declination
Unknown
Sunlit
N/A
Visualization observer readout
Local Sidereal Time
10:17:34
Azimuth
Unknown
Elevation
Unknown
Doppler factor
Unknown
Orbital elements
Apogee altitude
963.611 km
Perigee altitude
829.518 km
Semi-major axis
7,274.702 km
Eccentricity
0.00922
Inclination
99.4091°
RAAN
127.7511°
Arg. of periapsis
174.7767°
True anomaly
302.06104°
Mean anomaly
302.9528°
Eccentric anomaly
302.50748°
Mean motion
3.498 °/min
Orbital period
102.92 mins
BSTAR
0.00040822
Loading maneuver chart data...
Computing Atmospheric mass density...

Documentation

Showing up to 5 results
|